| time (UTC) | temp F | wind direction | speed knots | gust knots | rain 1hr in | rain 24hr in | rain mn in | humidity % | barometer mb |
| 20260507060008 | 53 | 162 | 0.0 | 0.0 | 0.00 | 0.09 | 0.01 | 89 | 1012.1 |
| 20260507054559 | 53 | 162 | 0.0 | 0.0 | 0.00 | 0.09 | 0.01 | 90 | 1012.0 |
| 20260507053047 | 53 | 162 | 0.0 | 0.0 | 0.00 | 0.09 | 0.01 | 91 | 1012.1 |
| 20260507051536 | 52 | 162 | 0.0 | 0.0 | 0.00 | 0.09 | 0.01 | 90 | 1012.0 |
| 20260507050039 | 52 | 163 | 0.0 | 0.0 | 0.00 | 0.09 | 0.01 | 90 | 1011.8 |
| 20260507044559 | 52 | 162 | 0.0 | 0.0 | 0.00 | 0.10 | 0.01 | 91 | 1011.6 |
| 20260507043042 | 52 | 162 | 0.0 | 0.0 | 0.00 | 0.10 | 0.01 | 91 | 1011.5 |
| 20260507041532 | 53 | 162 | 0.0 | 0.0 | 0.00 | 0.10 | 0.01 | 91 | 1011.3 |
| 20260507040023 | 52 | 163 | 0.0 | 0.0 | 0.00 | 0.10 | 0.01 | 90 | 1011.0 |
| 20260507034505 | 52 | 162 | 0.0 | 0.0 | 0.00 | 0.10 | 0.01 | 93 | 1011.1 |
| 20260507033051 | 52 | 163 | 0.0 | 0.0 | 0.00 | 0.10 | 0.01 | 94 | 1011.2 |
| 20260507031538 | 52 | 163 | 0.0 | 0.0 | 0.00 | 0.10 | 0.01 | 94 | 1011.3 |
| 20260507030026 | 52 | 162 | 0.0 | 0.0 | 0.00 | 0.10 | 0.01 | 93 | 1011.1 |
| 20260507024508 | 52 | 162 | 0.0 | 0.0 | 0.00 | 0.10 | 0.01 | 93 | 1011.2 |
| 20260507023045 | 52 | 162 | 0.0 | 0.0 | 0.00 | 0.10 | 0.01 | 93 | 1011.1 |
| 20260507021545 | 52 | 162 | 0.0 | 0.0 | 0.00 | 0.10 | 0.01 | 93 | 1011.1 |
| 20260507020015 | 52 | 162 | 0.0 | 0.0 | 0.00 | 0.10 | 0.01 | 93 | 1011.1 |
| 20260507014548 | 52 | 162 | 0.0 | 0.0 | 0.00 | 0.10 | 0.01 | 93 | 1011.0 |
| 20260507013034 | 52 | 162 | 0.0 | 0.0 | 0.00 | 0.10 | 0.01 | 93 | 1011.1 |
| 20260507011604 | 52 | 162 | 0.0 | 0.0 | 0.00 | 0.10 | 0.01 | 93 | 1011.0 |
| 20260507010048 | 52 | 162 | 0.0 | 0.0 | 0.00 | 0.10 | 0.01 | 93 | 1011.0 |
| 20260507004522 | 52 | 162 | 0.0 | 0.0 | 0.00 | 0.10 | 0.01 | 93 | 1010.9 |
| 20260507003038 | 52 | 162 | 0.0 | 0.0 | 0.00 | 0.10 | 0.01 | 93 | 1010.8 |
| 20260507001511 | 52 | 162 | 0.0 | 0.0 | 0.00 | 0.10 | 0.01 | 93 | 1010.8 |
| 20260507000049 | 52 | 162 | 0.0 | 0.0 | 0.00 | 0.10 | 0.01 | 93 | 1010.8 |
| 20260506234528 | 52 | 162 | 0.0 | 0.0 | 0.00 | 0.10 | 0.01 | 93 | 1010.9 |
| 20260506233008 | 51 | 162 | 0.0 | 0.0 | 0.00 | 0.10 | 0.01 | 93 | 1010.9 |
| 20260506231547 | 52 | 162 | 0.0 | 0.0 | 0.01 | 0.10 | 0.01 | 93 | 1010.8 |
| 20260506230020 | 52 | 162 | 0.0 | 0.0 | 0.01 | 0.10 | 0.01 | 94 | 1010.7 |
| 20260506224548 | 52 | 162 | 0.0 | 0.0 | 0.01 | 0.10 | 0.01 | 93 | 1010.8 |
| 20260506223019 | 52 | 162 | 0.0 | 0.0 | 0.01 | 0.10 | 0.01 | 93 | 1010.9 |
| 20260506221553 | 52 | 163 | 0.0 | 0.0 | 0.00 | 0.09 | 0.00 | 93 | 1010.7 |
| 20260506220035 | 53 | 162 | 0.0 | 0.0 | 0.00 | 0.09 | 0.00 | 93 | 1010.7 |
| 20260506214509 | 53 | 162 | 0.0 | 0.0 | 0.00 | 0.09 | 0.09 | 93 | 1010.6 |
| 20260506213039 | 54 | 162 | 0.0 | 0.0 | 0.00 | 0.09 | 0.09 | 93 | 1010.6 |
| 20260506211511 | 54 | 162 | 0.0 | 0.0 | 0.01 | 0.09 | 0.09 | 92 | 1010.4 |
| 20260506210044 | 54 | 162 | 0.0 | 0.0 | 0.01 | 0.09 | 0.09 | 92 | 1010.4 |
| 20260506204603 | 54 | 162 | 0.0 | 0.0 | 0.01 | 0.09 | 0.09 | 92 | 1010.3 |
| 20260506203032 | 55 | 162 | 0.0 | 0.0 | 0.01 | 0.09 | 0.09 | 90 | 1010.2 |
| 20260506201502 | 55 | 162 | 0.9 | 6.1 | 0.00 | 0.09 | 0.09 | 88 | 1009.9 |
| 20260506200024 | 55 | 162 | 0.0 | 7.0 | 0.00 | 0.09 | 0.09 | 86 | 1009.6 |
| 20260506194558 | 54 | 162 | 0.0 | 4.3 | 0.00 | 0.09 | 0.09 | 90 | 1009.5 |
| 20260506193019 | 55 | 162 | 0.0 | 0.0 | 0.00 | 0.09 | 0.09 | 90 | 1009.1 |
| 20260506191551 | 55 | 162 | 0.0 | 0.0 | 0.00 | 0.09 | 0.09 | 89 | 1009.0 |
| 20260506190021 | 55 | 162 | 0.0 | 0.0 | 0.00 | 0.09 | 0.09 | 89 | 1008.8 |
| 20260506184559 | 56 | 162 | 0.0 | 0.0 | 0.00 | 0.09 | 0.09 | 88 | 1008.7 |
| 20260506183036 | 56 | 162 | 0.0 | 0.0 | 0.00 | 0.09 | 0.09 | 86 | 1008.7 |
| 20260506181506 | 56 | 162 | 0.0 | 0.0 | 0.00 | 0.09 | 0.09 | 87 | 1008.5 |
| 20260506180031 | 56 | 162 | 0.0 | 0.0 | 0.00 | 0.09 | 0.09 | 86 | 1008.6 |
| 20260506174501 | 57 | 162 | 0.0 | 0.0 | 0.00 | 0.09 | 0.09 | 83 | 1008.4 |
| 20260506173033 | 58 | 162 | 0.0 | 0.0 | 0.00 | 0.09 | 0.09 | 81 | 1008.1 |
| 20260506171547 | 58 | 162 | 0.0 | 0.0 | 0.00 | 0.09 | 0.09 | 79 | 1008.0 |
| 20260506170017 | 58 | 162 | 0.0 | 5.2 | 0.00 | 0.09 | 0.09 | 79 | 1007.9 |
| 20260506164552 | 59 | 162 | 2.6 | 4.3 | 0.00 | 0.09 | 0.09 | 77 | 1007.7 |
| 20260506163019 | 59 | 162 | 0.0 | 0.9 | 0.00 | 0.09 | 0.09 | 80 | 1007.8 |
| 20260506161603 | 59 | 162 | 0.9 | 2.6 | 0.00 | 0.09 | 0.09 | 78 | 1007.8 |
| 20260506160034 | 59 | 162 | 0.0 | 0.0 | 0.00 | 0.09 | 0.09 | 79 | 1007.9 |
| 20260506154555 | 59 | 162 | 0.0 | 0.0 | 0.00 | 0.09 | 0.09 | 75 | 1008.0 |
| 20260506153023 | 58 | 162 | 0.0 | 1.7 | 0.00 | 0.09 | 0.09 | 75 | 1008.0 |
| 20260506151607 | 58 | 162 | 0.0 | 1.7 | 0.00 | 0.09 | 0.09 | 78 | 1008.1 |
| 20260506150031 | 58 | 162 | 0.0 | 4.3 | 0.00 | 0.09 | 0.09 | 78 | 1008.3 |
| 20260506144549 | 57 | 162 | 0.9 | 5.2 | 0.00 | 0.09 | 0.09 | 80 | 1008.2 |
| 20260506143041 | 57 | 162 | 2.6 | 5.2 | 0.00 | 0.09 | 0.09 | 83 | 1008.4 |
| 20260506141551 | 58 | 162 | 0.0 | 0.0 | 0.00 | 0.09 | 0.09 | 83 | 1008.5 |
| 20260506140030 | 58 | 162 | 0.0 | 2.6 | 0.00 | 0.09 | 0.09 | 81 | 1008.3 |
| 20260506134546 | 58 | 162 | 0.0 | 1.7 | 0.00 | 0.09 | 0.09 | 82 | 1008.1 |
| 20260506133028 | 58 | 162 | 0.0 | 0.0 | 0.01 | 0.09 | 0.09 | 83 | 1008.0 |
| 20260506131553 | 58 | 162 | 0.0 | 0.0 | 0.02 | 0.09 | 0.09 | 85 | 1008.1 |
| 20260506130020 | 57 | 162 | 0.0 | 0.0 | 0.02 | 0.09 | 0.09 | 84 | 1008.1 |
| 20260506124541 | 57 | 162 | 0.0 | 0.0 | 0.02 | 0.09 | 0.09 | 84 | 1008.1 |
| 20260506123011 | 57 | 162 | 0.0 | 0.0 | 0.01 | 0.08 | 0.08 | 85 | 1008.0 |
| 20260506121537 | 57 | 162 | 0.0 | 0.0 | 0.00 | 0.07 | 0.07 | 84 | 1007.9 |
| 20260506114539 | 57 | 162 | 0.9 | 6.1 | 0.02 | 0.07 | 0.07 | 82 | 1008.3 |
| 20260506113108 | 57 | 162 | 0.9 | 4.3 | 0.02 | 0.07 | 0.07 | 86 | 1008.8 |
| 20260506111550 | 57 | 162 | 0.0 | 0.0 | 0.03 | 0.07 | 0.07 | 88 | 1008.8 |
| 20260506110021 | 57 | 162 | 0.0 | 0.0 | 0.03 | 0.06 | 0.06 | 90 | 1008.9 |
| 20260506104543 | 57 | 162 | 0.0 | 0.0 | 0.02 | 0.06 | 0.06 | 88 | 1008.9 |
| 20260506103016 | 57 | 162 | 0.0 | 0.0 | 0.02 | 0.05 | 0.05 | 88 | 1009.0 |
| 20260506101554 | 57 | 162 | 0.0 | 0.0 | 0.01 | 0.04 | 0.04 | 88 | 1009.0 |
| 20260506100015 | 57 | 162 | 0.0 | 0.0 | 0.01 | 0.03 | 0.03 | 87 | 1009.0 |
| 20260506094555 | 57 | 162 | 0.0 | 0.0 | 0.01 | 0.03 | 0.03 | 87 | 1009.0 |
| 20260506093009 | 57 | 162 | 0.0 | 0.0 | 0.01 | 0.03 | 0.03 | 86 | 1009.1 |
| 20260506091541 | 57 | 162 | 0.0 | 0.0 | 0.01 | 0.03 | 0.03 | 87 | 1009.3 |
| 20260506090010 | 57 | 162 | 0.0 | 0.0 | 0.00 | 0.02 | 0.02 | 87 | 1009.4 |
| 20260506084535 | 57 | 162 | 0.0 | 0.0 | 0.00 | 0.02 | 0.02 | 87 | 1009.4 |
| 20260506083005 | 57 | 162 | 0.0 | 0.0 | 0.00 | 0.02 | 0.02 | 86 | 1009.3 |
| 20260506081529 | 56 | 162 | 0.0 | 0.0 | 0.01 | 0.02 | 0.02 | 89 | 1009.2 |
| 20260506073104 | 55 | 162 | 0.0 | 0.0 | 0.02 | 0.02 | 0.02 | 91 | 1009.2 |
| 20260506071518 | 56 | 162 | 0.0 | 0.0 | 0.01 | 0.02 | 0.02 | 90 | 1009.4 |
| 20260506061523 | 55 | 162 | 0.0 | 0.0 | 0.00 | 0.01 | 0.01 | 90 | 1009.9 |